This is the latest recevied weather packets stored in our database for station/object K3BAY-1. If no packets are shown the sender has not sent any weather packets the latest 10 day(s).
| Time | Temp. | Humidity | Pressure | Rain* | Wind** | Luminosity | Snow |
|---|---|---|---|---|---|---|---|
| 1777470179 | 14.44° C | 77% | 1013.9 hPa | 0 mm | - | 102 W/m² | - |
| 1777469875 | 14.44° C | 78% | 1014.2 hPa | 0 mm | - | 98 W/m² | - |
| 1777469571 | 14.44° C | 78% | 1014.2 hPa | 0 mm | - | 113 W/m² | - |
| 1777469266 | 13.89° C | 79% | 1014.2 hPa | 0 mm | - | 100 W/m² | - |
| 1777468961 | 13.89° C | 79% | 1013.9 hPa | 0 mm | - | 77 W/m² | - |
| 1777468657 | 13.89° C | 79% | 1014.2 hPa | 0 mm | - | 50 W/m² | - |
| 1777468354 | 13.89° C | 79% | 1014.2 hPa | 0 mm | - | 60 W/m² | - |
| 1777468050 | 13.89° C | 79% | 1014.2 hPa | 0 mm | - | 65 W/m² | - |
| 1777467746 | 13.33° C | 80% | 1014.2 hPa | 0 mm | - | 66 W/m² | - |
| 1777467441 | 13.33° C | 80% | 1014.6 hPa | 0 mm | - | 78 W/m² | - |
| 1777467137 | 13.33° C | 80% | 1014.6 hPa | 0 mm | - | 41 W/m² | - |
| 1777466835 | 13.33° C | 80% | 1014.6 hPa | 0 mm | - | 57 W/m² | - |
| 1777466533 | 13.33° C | 80% | 1014.9 hPa | 0 mm | - | 47 W/m² | - |
| 1777466229 | 12.78° C | 81% | 1014.9 hPa | 0 mm | - | 52 W/m² | - |
| 1777465924 | 12.78° C | 81% | 1014.9 hPa | 0 mm | - | 52 W/m² | - |
| 1777465615 | 12.78° C | 81% | 1015.3 hPa | 0 mm | - | 31 W/m² | - |
| 1777465311 | 12.78° C | 80% | 1015.3 hPa | 0 mm | - | 32 W/m² | - |
| 1777465005 | 13.33° C | 81% | 1015.3 hPa | 0 mm | - | 36 W/m² | - |
| 1777464700 | 12.78° C | 81% | 1015.6 hPa | 0 mm | - | 31 W/m² | - |
| 1777464397 | 12.78° C | 81% | 1015.3 hPa | 0 mm | - | 30 W/m² | - |
| 1777464093 | 12.78° C | 81% | 1015.6 hPa | 0 mm | - | 28 W/m² | - |
| 1777463792 | 12.78° C | 81% | 1015.9 hPa | 0 mm | - | 25 W/m² | - |
| 1777463488 | 12.78° C | 81% | 1015.9 hPa | 0 mm | - | 19 W/m² | - |
| 1777463184 | 12.78° C | 81% | 1015.3 hPa | 0 mm | - | 17 W/m² | - |
| 1777462879 | 12.78° C | 81% | 1014.2 hPa | 0 mm | - | 19 W/m² | - |
* Rain latest hour (hover to see other rain measurements)
** Current wind speed in m/s (hover to see current wind gust speed)